Time,TemperatureF,DewpointF,PressureIn,WindDirection,WindDirectionDegrees,WindSpeedMPH,WindSpeedGustMPH,Humidity,HourlyPrecipIn,Conditions,Clouds,dailyrainin,SolarRadiationWatts/m^2,SoftwareType,DateUTC
2013-11-02 00:00:00,51.1,42.4,29.94,North,349,0.0,0.0,72,0.00,,,0.00,0,Wunderground v.1.15,2013-11-02 07:00:00,
2013-11-02 00:06:00,51.1,42.4,29.94,North,349,0.0,0.0,72,0.00,,,0.00,0,Wunderground v.1.15,2013-11-02 07:06:00,
2013-11-02 00:12:00,51.0,42.3,29.95,North,349,0.0,0.0,72,0.00,,,0.00,0,Wunderground v.1.15,2013-11-02 07:12:00,
2013-11-02 00:18:00,50.9,42.2,29.94,North,349,0.0,0.0,72,0.00,,,0.00,0,Wunderground v.1.15,2013-11-02 07:18:00,
2013-11-02 00:24:00,50.9,42.6,29.95,North,349,0.0,0.0,73,0.00,,,0.00,0,Wunderground v.1.15,2013-11-02 07:24:00,
2013-11-02 00:30:00,50.7,42.4,29.94,North,349,0.0,0.0,73,0.00,,,0.00,0,Wunderground v.1.15,2013-11-02 07:30:00,
2013-11-02 00:36:00,50.4,42.1,29.94,North,349,0.0,0.0,73,0.00,,,0.00,0,Wunderground v.1.15,2013-11-02 07:36:00,
2013-11-02 00:42:00,50.1,41.8,29.94,North,349,0.0,0.0,73,0.00,,,0.00,0,Wunderground v.1.15,2013-11-02 07:42:00,
2013-11-02 00:48:00,49.8,41.8,29.95,North,349,0.0,0.0,74,0.00,,,0.00,0,Wunderground v.1.15,2013-11-02 07:48:00,
2013-11-02 00:54:00,49.5,41.6,29.95,North,349,0.0,0.0,74,0.00,,,0.00,0,Wunderground v.1.15,2013-11-02 07:54:00,
2013-11-02 01:00:00,49.2,41.6,29.95,North,349,0.0,0.0,75,0.00,,,0.00,0,Wunderground v.1.15,2013-11-02 08:00:00,
2013-11-02 01:06:00,48.9,41.3,29.95,North,349,0.0,0.0,75,0.00,,,0.00,0,Wunderground v.1.15,2013-11-02 08:06:00,
2013-11-02 01:12:00,48.7,41.5,29.95,North,349,0.0,0.0,76,0.00,,,0.00,0,Wunderground v.1.15,2013-11-02 08:12:00,
2013-11-02 01:18:00,48.5,41.6,29.94,North,349,0.0,0.0,77,0.00,,,0.00,0,Wunderground v.1.15,2013-11-02 08:18:00,
2013-11-02 01:24:00,48.3,41.4,29.94,North,349,0.0,0.0,77,0.00,,,0.00,0,Wunderground v.1.15,2013-11-02 08:24:00,
2013-11-02 01:30:00,48.2,41.7,29.94,North,349,0.0,0.0,78,0.00,,,0.00,0,Wunderground v.1.15,2013-11-02 08:30:00,
2013-11-02 01:36:00,48.0,41.5,29.94,North,349,0.0,0.0,78,0.00,,,0.00,0,Wunderground v.1.15,2013-11-02 08:36:00,
2013-11-02 01:42:00,47.7,41.2,29.95,North,349,0.0,0.0,78,0.00,,,0.00,0,Wunderground v.1.15,2013-11-02 08:42:00,
2013-11-02 01:48:00,47.5,41.0,29.95,North,349,0.0,0.0,78,0.00,,,0.00,0,Wunderground v.1.15,2013-11-02 08:48:00,
2013-11-02 01:54:00,47.4,40.9,29.95,North,349,0.0,0.0,78,0.00,,,0.00,0,Wunderground v.1.15,2013-11-02 08:54:00,
2013-11-02 02:00:00,47.4,40.9,29.95,North,349,0.0,0.0,78,0.00,,,0.00,0,Wunderground v.1.15,2013-11-02 09:00:00,
2013-11-02 02:06:00,47.2,40.7,29.95,North,349,0.0,0.0,78,0.00,,,0.00,0,Wunderground v.1.15,2013-11-02 09:06:00,
2013-11-02 02:12:00,47.1,40.9,29.95,North,349,0.0,0.0,79,0.00,,,0.00,0,Wunderground v.1.15,2013-11-02 09:12:00,
2013-11-02 02:18:00,47.0,40.8,29.95,North,349,0.0,0.0,79,0.00,,,0.00,0,Wunderground v.1.15,2013-11-02 09:18:00,
2013-11-02 02:24:00,46.9,40.7,29.95,North,349,0.0,0.0,79,0.00,,,0.00,0,Wunderground v.1.15,2013-11-02 09:24:00,
2013-11-02 02:30:00,46.7,40.9,29.94,North,349,0.0,0.0,80,0.00,,,0.00,0,Wunderground v.1.15,2013-11-02 09:30:00,
2013-11-02 02:36:00,46.7,40.9,29.94,North,349,0.0,0.0,80,0.00,,,0.00,0,Wunderground v.1.15,2013-11-02 09:36:00,
2013-11-02 02:42:00,46.6,41.1,29.94,North,349,0.0,0.0,81,0.00,,,0.00,0,Wunderground v.1.15,2013-11-02 09:42:00,
2013-11-02 02:48:00,46.5,41.3,29.94,North,349,0.0,0.0,82,0.00,,,0.00,0,Wunderground v.1.15,2013-11-02 09:48:00,
2013-11-02 02:54:00,46.5,41.3,29.94,North,349,0.0,0.0,82,0.00,,,0.00,0,Wunderground v.1.15,2013-11-02 09:54:00,
2013-11-02 03:00:00,46.4,41.2,29.94,North,349,0.0,0.0,82,0.00,,,0.00,0,Wunderground v.1.15,2013-11-02 10:00:00,
2013-11-02 03:06:00,46.3,41.1,29.94,North,349,0.0,0.0,82,0.00,,,0.00,0,Wunderground v.1.15,2013-11-02 10:06:00,
2013-11-02 03:12:00,46.2,41.0,29.94,North,349,0.0,0.0,82,0.00,,,0.00,0,Wunderground v.1.15,2013-11-02 10:12:00,
2013-11-02 03:18:00,46.2,41.3,29.94,North,349,0.0,0.0,83,0.00,,,0.00,0,Wunderground v.1.15,2013-11-02 10:18:00,
2013-11-02 03:24:00,46.2,41.3,29.94,North,349,0.0,0.0,83,0.00,,,0.00,0,Wunderground v.1.15,2013-11-02 10:24:00,
2013-11-02 03:30:00,46.1,41.2,29.94,North,349,0.0,0.0,83,0.00,,,0.00,0,Wunderground v.1.15,2013-11-02 10:30:00,
2013-11-02 03:36:00,46.1,41.2,29.94,North,349,0.0,0.0,83,0.00,,,0.00,0,Wunderground v.1.15,2013-11-02 10:36:00,
2013-11-02 03:42:00,46.1,41.2,29.93,North,349,0.0,0.0,83,0.00,,,0.00,0,Wunderground v.1.15,2013-11-02 10:42:00,
2013-11-02 03:48:00,46.0,41.1,29.93,North,349,0.0,0.0,83,0.00,,,0.00,0,Wunderground v.1.15,2013-11-02 10:48:00,
2013-11-02 03:54:00,45.8,40.6,29.93,North,349,0.0,0.0,82,0.00,,,0.00,0,Wunderground v.1.15,2013-11-02 10:54:00,
2013-11-02 04:00:00,45.6,40.4,29.92,North,349,0.0,0.0,82,0.00,,,0.00,0,Wunderground v.1.15,2013-11-02 11:00:00,
2013-11-02 04:06:00,45.5,40.3,29.92,North,349,0.0,0.0,82,0.00,,,0.00,0,Wunderground v.1.15,2013-11-02 11:06:00,
2013-11-02 04:12:00,45.3,40.1,29.92,North,349,0.0,0.0,82,0.00,,,0.00,0,Wunderground v.1.15,2013-11-02 11:12:00,
2013-11-02 04:18:00,45.1,39.6,29.92,North,349,0.0,0.0,81,0.00,,,0.00,0,Wunderground v.1.15,2013-11-02 11:18:00,
2013-11-02 04:24:00,44.8,39.0,29.93,North,349,0.0,0.0,80,0.00,,,0.00,0,Wunderground v.1.15,2013-11-02 11:24:00,
2013-11-02 04:30:00,44.7,38.9,29.92,North,349,0.0,0.0,80,0.00,,,0.00,0,Wunderground v.1.15,2013-11-02 11:30:00,
2013-11-02 04:36:00,44.9,39.1,29.92,North,349,0.0,0.0,80,0.00,,,0.00,0,Wunderground v.1.15,2013-11-02 11:36:00,
2013-11-02 04:42:00,45.0,39.2,29.92,North,349,0.0,0.0,80,0.00,,,0.00,0,Wunderground v.1.15,2013-11-02 11:42:00,
2013-11-02 04:48:00,44.9,39.1,29.92,North,349,0.0,0.0,80,0.00,,,0.00,0,Wunderground v.1.15,2013-11-02 11:48:00,
2013-11-02 04:54:00,44.9,39.7,29.92,North,349,0.0,0.0,82,0.00,,,0.00,0,Wunderground v.1.15,2013-11-02 11:54:00,
2013-11-02 05:00:00,44.9,39.7,29.92,North,349,0.0,0.0,82,0.00,,,0.00,0,Wunderground v.1.15,2013-11-02 12:00:00,
2013-11-02 05:06:00,44.8,40.0,29.92,North,349,0.0,0.0,83,0.00,,,0.00,0,Wunderground v.1.15,2013-11-02 12:06:00,
2013-11-02 05:12:00,44.7,39.9,29.92,North,349,0.0,0.0,83,0.00,,,0.00,0,Wunderground v.1.15,2013-11-02 12:12:00,
2013-11-02 05:18:00,44.7,40.2,29.93,North,349,0.0,0.0,84,0.00,,,0.00,0,Wunderground v.1.15,2013-11-02 12:18:00,
2013-11-02 05:24:00,44.6,40.1,29.93,North,349,0.0,0.0,84,0.00,,,0.00,0,Wunderground v.1.15,2013-11-02 12:24:00,
2013-11-02 05:30:00,44.5,40.3,29.93,North,349,0.0,0.0,85,0.00,,,0.00,0,Wunderground v.1.15,2013-11-02 12:30:00,
2013-11-02 05:36:00,44.7,40.8,29.93,North,349,0.0,0.0,86,0.00,,,0.00,0,Wunderground v.1.15,2013-11-02 12:36:00,
2013-11-02 05:42:00,44.7,40.8,29.93,North,349,0.0,0.0,86,0.00,,,0.00,0,Wunderground v.1.15,2013-11-02 12:42:00,
2013-11-02 05:48:00,44.7,40.8,29.93,North,349,0.0,0.0,86,0.00,,,0.00,0,Wunderground v.1.15,2013-11-02 12:48:00,
2013-11-02 05:54:00,44.6,40.7,29.93,North,349,0.0,0.0,86,0.00,,,0.00,0,Wunderground v.1.15,2013-11-02 12:54:00,
2013-11-02 06:00:00,44.5,40.6,29.93,North,349,0.0,0.0,86,0.00,,,0.00,0,Wunderground v.1.15,2013-11-02 13:00:00,
2013-11-02 06:06:00,44.4,40.5,29.93,North,349,0.0,0.0,86,0.00,,,0.00,0,Wunderground v.1.15,2013-11-02 13:06:00,
2013-11-02 06:12:00,44.2,40.3,29.93,North,349,0.0,0.0,86,0.00,,,0.00,0,Wunderground v.1.15,2013-11-02 13:12:00,
2013-11-02 06:18:00,44.1,40.2,29.93,North,349,0.0,0.0,86,0.00,,,0.00,0,Wunderground v.1.15,2013-11-02 13:18:00,
2013-11-02 06:24:00,44.1,40.2,29.93,North,349,0.0,0.0,86,0.00,,,0.00,0,Wunderground v.1.15,2013-11-02 13:24:00,
2013-11-02 06:30:00,44.0,40.1,29.93,North,349,0.0,0.0,86,0.00,,,0.00,0,Wunderground v.1.15,2013-11-02 13:30:00,
2013-11-02 06:36:00,44.0,40.1,29.93,North,349,0.0,0.0,86,0.00,,,0.00,0,Wunderground v.1.15,2013-11-02 13:36:00,
2013-11-02 06:42:00,44.0,40.1,29.93,North,349,0.0,0.0,86,0.00,,,0.00,0,Wunderground v.1.15,2013-11-02 13:42:00,
2013-11-02 06:48:00,43.8,39.9,29.93,North,349,0.0,0.0,86,0.00,,,0.00,0,Wunderground v.1.15,2013-11-02 13:48:00,
2013-11-02 06:54:00,43.8,39.9,29.93,North,349,0.0,0.0,86,0.00,,,0.00,0,Wunderground v.1.15,2013-11-02 13:54:00,
2013-11-02 07:00:00,43.8,40.2,29.93,North,349,0.0,0.0,87,0.00,,,0.00,0,Wunderground v.1.15,2013-11-02 14:00:00,
2013-11-02 07:06:00,43.8,40.2,29.93,North,349,0.0,0.0,87,0.00,,,0.00,0,Wunderground v.1.15,2013-11-02 14:06:00,
2013-11-02 07:12:00,43.8,40.2,29.93,North,349,0.0,0.0,87,0.00,,,0.00,0,Wunderground v.1.15,2013-11-02 14:12:00,
2013-11-02 07:18:00,43.5,39.6,29.93,North,349,0.0,0.0,86,0.00,,,0.00,0,Wunderground v.1.15,2013-11-02 14:18:00,
2013-11-02 07:24:00,43.2,39.3,29.93,North,349,0.0,0.0,86,0.00,,,0.00,0,Wunderground v.1.15,2013-11-02 14:24:00,
2013-11-02 07:30:00,43.0,38.8,29.93,North,349,0.0,0.0,85,0.00,,,0.00,0,Wunderground v.1.15,2013-11-02 14:30:00,
2013-11-02 07:36:00,42.8,38.6,29.93,North,349,0.0,0.0,85,0.00,,,0.00,5,Wunderground v.1.15,2013-11-02 14:36:00,
2013-11-02 07:42:00,42.8,38.6,29.93,North,349,0.0,0.0,85,0.00,,,0.00,7,Wunderground v.1.15,2013-11-02 14:42:00,
2013-11-02 07:48:00,42.9,39.0,29.93,North,349,0.0,0.0,86,0.00,,,0.00,11,Wunderground v.1.15,2013-11-02 14:48:00,
2013-11-02 07:54:00,43.0,39.1,29.93,North,349,0.0,0.0,86,0.00,,,0.00,14,Wunderground v.1.15,2013-11-02 14:54:00,
2013-11-02 08:00:00,43.3,39.7,29.94,North,349,0.0,0.0,87,0.00,,,0.00,18,Wunderground v.1.15,2013-11-02 15:00:00,
2013-11-02 08:06:00,43.5,39.9,29.94,North,349,0.0,0.0,87,0.00,,,0.00,21,Wunderground v.1.15,2013-11-02 15:06:00,
2013-11-02 08:12:00,43.7,40.1,29.94,North,349,0.0,0.0,87,0.00,,,0.00,23,Wunderground v.1.15,2013-11-02 15:12:00,
2013-11-02 08:18:00,43.9,40.3,29.94,North,349,0.0,0.0,87,0.00,,,0.00,25,Wunderground v.1.15,2013-11-02 15:18:00,
2013-11-02 08:24:00,44.1,40.8,29.93,North,349,0.0,0.0,88,0.00,,,0.00,26,Wunderground v.1.15,2013-11-02 15:24:00,
2013-11-02 08:30:00,44.5,41.2,29.93,North,349,0.0,0.0,88,0.00,,,0.00,28,Wunderground v.1.15,2013-11-02 15:30:00,
2013-11-02 08:36:00,45.1,41.8,29.93,North,349,0.0,0.0,88,0.00,,,0.00,30,Wunderground v.1.15,2013-11-02 15:36:00,
2013-11-02 08:42:00,45.6,42.0,29.93,North,355,0.0,0.0,87,0.00,,,0.00,32,Wunderground v.1.15,2013-11-02 15:42:00,
2013-11-02 08:48:00,46.4,42.1,29.93,NNE,29,1.0,3.0,85,0.00,,,0.00,33,Wunderground v.1.15,2013-11-02 15:48:00,
2013-11-02 08:54:00,47.0,42.4,29.94,NNE,32,1.0,1.0,84,0.00,,,0.00,37,Wunderground v.1.15,2013-11-02 15:54:00,
2013-11-02 09:00:00,47.4,42.5,29.93,NNE,32,0.0,0.0,83,0.00,,,0.00,60,Wunderground v.1.15,2013-11-02 16:00:00,
2013-11-02 09:06:00,47.8,42.6,29.94,NNE,32,0.0,0.0,82,0.00,,,0.00,199,Wunderground v.1.15,2013-11-02 16:06:00,
2013-11-02 09:12:00,48.5,43.3,29.93,NNE,33,0.0,3.0,82,0.00,,,0.00,223,Wunderground v.1.15,2013-11-02 16:12:00,
2013-11-02 09:18:00,50.0,44.7,29.93,NNE,33,0.0,2.0,82,0.00,,,0.00,244,Wunderground v.1.15,2013-11-02 16:18:00,
2013-11-02 09:24:00,51.5,44.9,29.94,NE,38,1.0,1.0,78,0.00,,,0.00,262,Wunderground v.1.15,2013-11-02 16:24:00,
2013-11-02 09:30:00,52.2,44.9,29.94,NE,38,0.0,0.0,76,0.00,,,0.00,281,Wunderground v.1.15,2013-11-02 16:30:00,
2013-11-02 09:36:00,52.5,44.4,29.94,NE,38,0.0,0.0,74,0.00,,,0.00,299,Wunderground v.1.15,2013-11-02 16:36:00,
2013-11-02 09:42:00,53.0,44.6,29.94,NE,38,0.0,0.0,73,0.00,,,0.00,315,Wunderground v.1.15,2013-11-02 16:42:00,
2013-11-02 09:48:00,53.5,44.3,29.94,NE,38,0.0,0.0,71,0.00,,,0.00,332,Wunderground v.1.15,2013-11-02 16:48:00,
2013-11-02 09:54:00,54.2,45.0,29.94,NE,38,0.0,0.0,71,0.00,,,0.00,350,Wunderground v.1.15,2013-11-02 16:54:00,
2013-11-02 10:00:00,55.2,45.6,29.93,NE,40,0.0,0.0,70,0.00,,,0.00,373,Wunderground v.1.15,2013-11-02 17:00:00,
2013-11-02 10:06:00,56.2,45.8,29.93,NE,42,0.0,3.0,68,0.00,,,0.00,394,Wunderground v.1.15,2013-11-02 17:06:00,
2013-11-02 10:12:00,57.3,46.0,29.93,NE,45,0.0,3.0,66,0.00,,,0.00,418,Wunderground v.1.15,2013-11-02 17:12:00,
2013-11-02 10:18:00,58.5,46.4,29.93,ENE,65,2.0,5.0,64,0.00,,,0.00,445,Wunderground v.1.15,2013-11-02 17:18:00,
2013-11-02 10:24:00,59.7,45.8,29.93,ESE,104,2.0,5.0,60,0.00,,,0.00,462,Wunderground v.1.15,2013-11-02 17:24:00,
2013-11-02 10:30:00,60.2,46.3,29.93,ESE,104,1.0,3.0,60,0.00,,,0.00,408,Wunderground v.1.15,2013-11-02 17:30:00,
2013-11-02 10:36:00,60.8,46.8,29.93,ESE,106,1.0,3.0,60,0.00,,,0.00,401,Wunderground v.1.15,2013-11-02 17:36:00,
2013-11-02 10:42:00,61.1,46.7,29.93,ESE,107,1.0,5.0,59,0.00,,,0.00,401,Wunderground v.1.15,2013-11-02 17:42:00,
2013-11-02 10:48:00,61.8,47.8,29.94,ESE,107,0.0,2.0,60,0.00,,,0.00,480,Wunderground v.1.15,2013-11-02 17:48:00,
2013-11-02 10:54:00,62.4,47.0,29.93,ESE,107,0.0,0.0,57,0.00,,,0.00,506,Wunderground v.1.15,2013-11-02 17:54:00,
2013-11-02 11:00:00,62.7,47.2,29.93,ESE,107,0.0,5.0,57,0.00,,,0.00,531,Wunderground v.1.15,2013-11-02 18:00:00,
2013-11-02 11:06:00,63.0,47.1,29.93,SE,136,1.0,5.0,56,0.00,,,0.00,570,Wunderground v.1.15,2013-11-02 18:06:00,
2013-11-02 11:12:00,63.5,47.5,29.92,SE,136,1.0,1.0,56,0.00,,,0.00,605,Wunderground v.1.15,2013-11-02 18:12:00,
2013-11-02 11:18:00,64.4,46.9,29.92,SE,140,1.0,1.0,53,0.00,,,0.00,635,Wunderground v.1.15,2013-11-02 18:18:00,
2013-11-02 11:24:00,65.1,47.5,29.92,SE,144,1.0,5.0,53,0.00,,,0.00,596,Wunderground v.1.15,2013-11-02 18:24:00,
2013-11-02 11:30:00,65.4,47.8,29.91,SE,136,1.0,1.0,53,0.00,,,0.00,338,Wunderground v.1.15,2013-11-02 18:30:00,
2013-11-02 11:36:00,65.8,47.7,29.91,SE,136,1.0,5.0,52,0.00,,,0.00,459,Wunderground v.1.15,2013-11-02 18:36:00,
2013-11-02 11:42:00,66.3,47.6,29.91,SE,138,1.0,1.0,51,0.00,,,0.00,564,Wunderground v.1.15,2013-11-02 18:42:00,
2013-11-02 11:48:00,67.0,48.3,29.91,SE,136,0.0,5.0,51,0.00,,,0.00,629,Wunderground v.1.15,2013-11-02 18:48:00,
2013-11-02 11:54:00,67.9,48.0,29.90,SE,135,1.0,5.0,49,0.00,,,0.00,589,Wunderground v.1.15,2013-11-02 18:54:00,
2013-11-02 12:00:00,68.6,48.7,29.90,SE,134,1.0,1.0,49,0.00,,,0.00,679,Wunderground v.1.15,2013-11-02 19:00:00,
2013-11-02 12:06:00,69.3,48.8,29.90,SE,135,1.0,5.0,48,0.00,,,0.00,355,Wunderground v.1.15,2013-11-02 19:06:00,
2013-11-02 12:12:00,69.9,49.3,29.90,SE,142,1.0,2.0,48,0.00,,,0.00,594,Wunderground v.1.15,2013-11-02 19:12:00,
2013-11-02 12:18:00,70.2,47.9,29.90,SSE,147,1.0,1.0,45,0.00,,,0.00,541,Wunderground v.1.15,2013-11-02 19:18:00,
2013-11-02 12:24:00,69.9,48.7,29.90,South,184,2.0,7.0,47,0.00,,,0.00,404,Wunderground v.1.15,2013-11-02 19:24:00,
2013-11-02 12:30:00,69.6,47.9,29.90,SSW,192,2.0,2.0,46,0.00,,,0.00,476,Wunderground v.1.15,2013-11-02 19:30:00,
2013-11-02 12:36:00,69.7,48.6,29.89,SSW,192,1.0,2.0,47,0.00,,,0.00,608,Wunderground v.1.15,2013-11-02 19:36:00,
2013-11-02 12:42:00,69.9,49.3,29.89,SSW,192,1.0,4.0,48,0.00,,,0.00,608,Wunderground v.1.15,2013-11-02 19:42:00,
2013-11-02 12:48:00,71.1,49.8,29.88,SSW,192,1.0,1.0,47,0.00,,,0.00,635,Wunderground v.1.15,2013-11-02 19:48:00,
2013-11-02 12:54:00,72.3,50.4,29.88,SSW,192,0.0,1.0,46,0.00,,,0.00,485,Wunderground v.1.15,2013-11-02 19:54:00,
2013-11-02 13:00:00,73.7,49.8,29.88,SSW,192,0.0,0.0,43,0.00,,,0.00,383,Wunderground v.1.15,2013-11-02 20:00:00,
2013-11-02 13:06:00,74.7,50.1,29.88,SSW,192,0.0,7.0,42,0.00,,,0.00,457,Wunderground v.1.15,2013-11-02 20:06:00,
2013-11-02 14:04:00,74.3,49.1,29.84,SE,138,1.0,1.0,41,0.00,,,0.00,381,Wunderground v.1.15,2013-11-02 21:04:00,
2013-11-02 14:10:00,74.1,49.5,29.84,SE,138,1.0,1.0,42,0.00,,,0.00,411,Wunderground v.1.15,2013-11-02 21:10:00,
2013-11-02 14:16:00,74.3,49.7,29.84,SE,138,0.0,2.0,42,0.00,,,0.00,359,Wunderground v.1.15,2013-11-02 21:16:00,
2013-11-02 14:22:00,74.4,50.4,29.84,SE,138,0.0,1.0,43,0.00,,,0.00,288,Wunderground v.1.15,2013-11-02 21:22:00,
2013-11-02 14:28:00,74.3,49.7,29.83,SE,138,0.0,2.0,42,0.00,,,0.00,237,Wunderground v.1.15,2013-11-02 21:28:00,
2013-11-02 14:34:00,74.3,49.7,29.84,SE,138,0.0,0.0,42,0.00,,,0.00,288,Wunderground v.1.15,2013-11-02 21:34:00,
2013-11-02 14:40:00,74.2,49.0,29.83,SE,138,0.0,0.0,41,0.00,,,0.00,253,Wunderground v.1.15,2013-11-02 21:40:00,
2013-11-02 14:46:00,74.1,49.5,29.83,SE,138,0.0,0.0,42,0.00,,,0.00,450,Wunderground v.1.15,2013-11-02 21:46:00,
2013-11-02 14:52:00,74.2,49.0,29.83,SE,144,0.0,0.0,41,0.00,,,0.00,325,Wunderground v.1.15,2013-11-02 21:52:00,
2013-11-02 14:58:00,74.4,49.2,29.82,SE,144,1.0,4.0,41,0.00,,,0.00,179,Wunderground v.1.15,2013-11-02 21:58:00,
2013-11-02 15:04:00,74.9,50.3,29.82,SE,144,1.0,6.0,42,0.00,,,0.00,490,Wunderground v.1.15,2013-11-02 22:04:00,
2013-11-02 15:10:00,75.6,49.6,29.82,SE,144,0.0,0.0,40,0.00,,,0.00,401,Wunderground v.1.15,2013-11-02 22:10:00,
2013-11-02 15:16:00,76.0,49.9,29.82,SE,144,0.0,0.0,40,0.00,,,0.00,397,Wunderground v.1.15,2013-11-02 22:16:00,
2013-11-02 15:22:00,76.0,49.9,29.82,SSE,155,1.0,3.0,40,0.00,,,0.00,214,Wunderground v.1.15,2013-11-02 22:22:00,
2013-11-02 15:28:00,75.8,49.1,29.81,SSE,155,0.0,3.0,39,0.00,,,0.00,427,Wunderground v.1.15,2013-11-02 22:28:00,
2013-11-02 15:34:00,76.1,50.0,29.81,SSE,155,0.0,0.0,40,0.00,,,0.00,230,Wunderground v.1.15,2013-11-02 22:34:00,
2013-11-02 15:40:00,76.5,49.7,29.81,SE,140,1.0,1.0,39,0.00,,,0.00,330,Wunderground v.1.15,2013-11-02 22:40:00,
2013-11-02 15:46:00,76.6,49.8,29.81,SSE,160,1.0,2.0,39,0.00,,,0.00,323,Wunderground v.1.15,2013-11-02 22:46:00,
2013-11-02 15:52:00,76.5,49.7,29.81,SE,143,1.0,2.0,39,0.00,,,0.00,327,Wunderground v.1.15,2013-11-02 22:52:00,
2013-11-02 15:58:00,76.6,49.1,29.80,SSE,147,1.0,2.0,38,0.00,,,0.00,341,Wunderground v.1.15,2013-11-02 22:58:00,
2013-11-02 16:04:00,76.9,49.4,29.80,SSE,150,1.0,4.0,38,0.00,,,0.00,292,Wunderground v.1.15,2013-11-02 23:04:00,
2013-11-02 16:10:00,76.9,50.1,29.80,SSE,152,1.0,1.0,39,0.00,,,0.00,364,Wunderground v.1.15,2013-11-02 23:10:00,
2013-11-02 16:16:00,77.3,50.4,29.80,SSE,163,2.0,4.0,39,0.00,,,0.00,338,Wunderground v.1.15,2013-11-02 23:16:00,
2013-11-02 16:22:00,77.5,50.6,29.80,SSE,159,2.0,2.0,39,0.00,,,0.00,313,Wunderground v.1.15,2013-11-02 23:22:00,
2013-11-02 16:28:00,77.7,50.8,29.80,SSE,153,1.0,2.0,39,0.00,,,0.00,294,Wunderground v.1.15,2013-11-02 23:28:00,
2013-11-02 16:34:00,77.7,50.1,29.79,SSE,161,1.0,5.0,38,0.00,,,0.00,274,Wunderground v.1.15,2013-11-02 23:34:00,
2013-11-02 16:40:00,77.7,50.8,29.79,South,190,2.0,2.0,39,0.00,,,0.00,255,Wunderground v.1.15,2013-11-02 23:40:00,
2013-11-02 16:46:00,77.8,50.9,29.79,South,181,1.0,2.0,39,0.00,,,0.00,234,Wunderground v.1.15,2013-11-02 23:46:00,
2013-11-02 16:52:00,77.8,50.2,29.79,South,178,1.0,2.0,38,0.00,,,0.00,209,Wunderground v.1.15,2013-11-02 23:52:00,
2013-11-02 16:58:00,77.8,50.9,29.79,South,178,1.0,3.0,39,0.00,,,0.00,186,Wunderground v.1.15,2013-11-02 23:58:00,
2013-11-02 17:04:00,77.7,50.8,29.78,South,178,0.0,8.0,39,0.00,,,0.00,163,Wunderground v.1.15,2013-11-03 00:04:00,
2013-11-02 17:10:00,77.5,49.9,29.78,South,175,0.0,0.0,38,0.00,,,0.00,141,Wunderground v.1.15,2013-11-03 00:10:00,
2013-11-02 17:16:00,77.5,50.6,29.79,South,176,0.0,0.0,39,0.00,,,0.00,120,Wunderground v.1.15,2013-11-03 00:16:00,
2013-11-02 17:22:00,77.3,50.4,29.78,South,175,0.0,0.0,39,0.00,,,0.00,98,Wunderground v.1.15,2013-11-03 00:22:00,
2013-11-02 17:28:00,76.8,50.0,29.78,South,174,0.0,0.0,39,0.00,,,0.00,77,Wunderground v.1.15,2013-11-03 00:28:00,
2013-11-02 17:34:00,76.1,50.7,29.78,South,174,0.0,0.0,41,0.00,,,0.00,60,Wunderground v.1.15,2013-11-03 00:34:00,
2013-11-02 17:40:00,75.2,50.5,29.78,South,174,0.0,0.0,42,0.00,,,0.00,21,Wunderground v.1.15,2013-11-03 00:40:00,
2013-11-02 17:46:00,74.1,50.2,29.78,South,174,0.0,0.0,43,0.00,,,0.00,18,Wunderground v.1.15,2013-11-03 00:46:00,
2013-11-02 17:52:00,73.2,50.0,29.78,South,174,0.0,0.0,44,0.00,,,0.00,14,Wunderground v.1.15,2013-11-03 00:52:00,
2013-11-02 17:58:00,72.3,50.4,29.78,South,174,0.0,0.0,46,0.00,,,0.00,11,Wunderground v.1.15,2013-11-03 00:58:00,
2013-11-02 18:04:00,71.6,50.3,29.78,South,174,0.0,9.0,47,0.00,,,0.00,7,Wunderground v.1.15,2013-11-03 01:04:00,
2013-11-02 18:10:00,70.8,50.1,29.78,South,174,0.0,0.0,48,0.00,,,0.00,5,Wunderground v.1.15,2013-11-03 01:10:00,
2013-11-02 18:16:00,69.7,50.2,29.78,South,174,0.0,0.0,50,0.00,,,0.00,0,Wunderground v.1.15,2013-11-03 01:16:00,
2013-11-02 18:22:00,68.4,50.1,29.79,SSW,203,0.0,3.0,52,0.00,,,0.00,0,Wunderground v.1.15,2013-11-03 01:22:00,
2013-11-02 18:28:00,67.5,48.7,29.79,NNE,14,2.0,7.0,51,0.00,,,0.00,0,Wunderground v.1.15,2013-11-03 01:28:00,
2013-11-02 18:34:00,67.5,48.2,29.79,NNW,338,3.0,4.0,50,0.00,,,0.00,0,Wunderground v.1.15,2013-11-03 01:34:00,
2013-11-02 18:40:00,67.3,48.0,29.79,North,355,2.0,2.0,50,0.00,,,0.00,0,Wunderground v.1.15,2013-11-03 01:40:00,
2013-11-02 18:46:00,66.9,48.2,29.79,NW,325,1.0,3.0,51,0.00,,,0.00,0,Wunderground v.1.15,2013-11-03 01:46:00,
2013-11-02 18:52:00,66.4,48.2,29.79,NNW,333,1.0,3.0,52,0.00,,,0.00,0,Wunderground v.1.15,2013-11-03 01:52:00,
2013-11-02 18:58:00,65.9,47.8,29.79,NW,321,1.0,3.0,52,0.00,,,0.00,0,Wunderground v.1.15,2013-11-03 01:58:00,
2013-11-02 19:04:00,65.6,47.5,29.80,NW,308,2.0,5.0,52,0.00,,,0.00,0,Wunderground v.1.15,2013-11-03 02:04:00,
2013-11-02 19:10:00,65.4,47.8,29.80,NNW,331,2.0,2.0,53,0.00,,,0.00,0,Wunderground v.1.15,2013-11-03 02:10:00,
2013-11-02 19:16:00,65.1,47.5,29.80,WNW,290,1.0,2.0,53,0.00,,,0.00,0,Wunderground v.1.15,2013-11-03 02:16:00,
2013-11-02 19:22:00,64.9,47.4,29.80,NNW,336,1.0,8.0,53,0.00,,,0.00,0,Wunderground v.1.15,2013-11-03 02:22:00,
2013-11-02 19:28:00,64.7,47.2,29.80,NNW,337,2.0,8.0,53,0.00,,,0.00,0,Wunderground v.1.15,2013-11-03 02:28:00,
2013-11-02 19:34:00,64.5,47.0,29.80,NNW,340,2.0,3.0,53,0.00,,,0.00,0,Wunderground v.1.15,2013-11-03 02:34:00,
2013-11-02 19:40:00,64.3,47.3,29.80,NNE,17,1.0,1.0,54,0.00,,,0.00,0,Wunderground v.1.15,2013-11-03 02:40:00,
2013-11-02 19:46:00,63.9,47.4,29.80,North,355,1.0,3.0,55,0.00,,,0.00,0,Wunderground v.1.15,2013-11-03 02:46:00,
2013-11-02 19:52:00,63.6,47.1,29.81,NNW,344,1.0,1.0,55,0.00,,,0.00,0,Wunderground v.1.15,2013-11-03 02:52:00,
2013-11-02 19:58:00,63.4,47.4,29.81,NNW,340,0.0,1.0,56,0.00,,,0.00,0,Wunderground v.1.15,2013-11-03 02:58:00,
2013-11-02 20:04:00,63.1,47.1,29.81,NNW,346,0.0,14.0,56,0.00,,,0.00,0,Wunderground v.1.15,2013-11-03 03:04:00,
2013-11-02 20:10:00,62.8,46.9,29.81,NNW,344,0.0,0.0,56,0.00,,,0.00,0,Wunderground v.1.15,2013-11-03 03:10:00,
2013-11-02 20:16:00,62.6,47.1,29.81,NNW,338,0.0,0.0,57,0.00,,,0.00,0,Wunderground v.1.15,2013-11-03 03:16:00,
2013-11-02 20:22:00,62.4,47.0,29.81,NNW,338,0.0,0.0,57,0.00,,,0.00,0,Wunderground v.1.15,2013-11-03 03:22:00,
2013-11-02 20:28:00,62.0,47.0,29.82,NNW,338,0.0,0.0,58,0.00,,,0.00,0,Wunderground v.1.15,2013-11-03 03:28:00,
2013-11-02 20:34:00,61.8,46.9,29.82,NNW,338,0.0,0.0,58,0.00,,,0.00,0,Wunderground v.1.15,2013-11-03 03:34:00,
2013-11-02 20:40:00,61.5,47.0,29.81,NNW,338,0.0,0.0,59,0.00,,,0.00,0,Wunderground v.1.15,2013-11-03 03:40:00,
2013-11-02 20:46:00,61.3,46.8,29.82,NNW,338,0.0,0.0,59,0.00,,,0.00,0,Wunderground v.1.15,2013-11-03 03:46:00,
2013-11-02 20:52:00,60.9,46.9,29.82,NNW,338,0.0,0.0,60,0.00,,,0.00,0,Wunderground v.1.15,2013-11-03 03:52:00,
2013-11-02 20:58:00,60.6,46.6,29.82,NNW,338,0.0,0.0,60,0.00,,,0.00,0,Wunderground v.1.15,2013-11-03 03:58:00,
2013-11-02 21:02:00,60.4,46.4,29.82,NNW,338,0.0,8.0,60,0.00,,,0.00,0,Wunderground v.1.15,2013-11-03 04:02:00,
2013-11-02 21:04:00,60.2,46.7,29.82,NNW,338,0.0,8.0,61,0.00,,,0.00,0,Wunderground v.1.15,2013-11-03 04:04:00,
2013-11-02 21:06:00,60.1,46.6,29.82,NNW,338,0.0,8.0,61,0.00,,,0.00,0,Wunderground v.1.15,2013-11-03 04:06:00,
2013-11-02 21:12:00,59.8,46.3,29.82,NNW,348,0.0,0.0,61,0.00,,,0.00,0,Wunderground v.1.15,2013-11-03 04:12:00,
2013-11-02 21:16:00,59.8,45.9,29.82,NNW,346,0.0,1.0,60,0.00,,,0.00,0,Wunderground v.1.15,2013-11-03 04:16:00,
2013-11-02 21:18:00,59.8,45.9,29.82,NNW,346,0.0,1.0,60,0.00,,,0.00,0,Wunderground v.1.15,2013-11-03 04:18:00,
2013-11-02 21:24:00,59.7,45.8,29.83,NNW,344,0.0,1.0,60,0.00,,,0.00,0,Wunderground v.1.15,2013-11-03 04:24:00,
2013-11-02 21:30:00,59.7,45.8,29.83,NNW,340,0.0,3.0,60,0.00,,,0.00,0,Wunderground v.1.15,2013-11-03 04:30:00,
2013-11-02 21:36:00,59.6,45.7,29.83,NNW,344,0.0,3.0,60,0.00,,,0.00,0,Wunderground v.1.15,2013-11-03 04:36:00,
2013-11-02 21:42:00,59.6,44.8,29.84,NW,322,1.0,3.0,58,0.00,,,0.00,0,Wunderground v.1.15,2013-11-03 04:42:00,
2013-11-02 21:48:00,60.1,43.9,29.84,North,360,2.0,4.0,55,0.00,,,0.00,0,Wunderground v.1.15,2013-11-03 04:48:00,
2013-11-02 21:54:00,60.3,43.1,29.84,NNE,30,2.0,2.0,53,0.00,,,0.00,0,Wunderground v.1.15,2013-11-03 04:54:00,
2013-11-02 22:00:00,60.3,42.1,29.84,North,5,2.0,2.0,51,0.00,,,0.00,0,Wunderground v.1.15,2013-11-03 05:00:00,
2013-11-02 22:06:00,60.8,39.9,29.85,North,5,2.0,3.0,46,0.00,,,0.00,0,Wunderground v.1.15,2013-11-03 05:06:00,
2013-11-02 22:12:00,61.4,38.1,29.85,North,351,4.0,8.0,42,0.00,,,0.00,0,Wunderground v.1.15,2013-11-03 05:12:00,
2013-11-02 22:18:00,61.6,37.7,29.85,NNE,19,4.0,8.0,41,0.00,,,0.00,0,Wunderground v.1.15,2013-11-03 05:18:00,
2013-11-02 22:24:00,61.5,36.9,29.85,NNW,327,3.0,6.0,40,0.00,,,0.00,0,Wunderground v.1.15,2013-11-03 05:24:00,
2013-11-02 22:30:00,61.3,36.8,29.85,NNE,28,3.0,5.0,40,0.00,,,0.00,0,Wunderground v.1.15,2013-11-03 05:30:00,
2013-11-02 22:36:00,61.0,36.5,29.86,NW,322,3.0,5.0,40,0.00,,,0.00,0,Wunderground v.1.15,2013-11-03 05:36:00,
2013-11-02 22:42:00,60.5,36.7,29.86,NNW,331,1.0,2.0,41,0.00,,,0.00,0,Wunderground v.1.15,2013-11-03 05:42:00,
2013-11-02 22:48:00,60.1,36.3,29.86,NNW,332,1.0,2.0,41,0.00,,,0.00,0,Wunderground v.1.15,2013-11-03 05:48:00,
2013-11-02 22:54:00,59.7,37.2,29.86,NW,319,1.0,7.0,43,0.00,,,0.00,0,Wunderground v.1.15,2013-11-03 05:54:00,
2013-11-02 23:00:00,59.4,36.9,29.86,NW,319,1.0,1.0,43,0.00,,,0.00,0,Wunderground v.1.15,2013-11-03 06:00:00,
2013-11-02 23:06:00,59.0,36.5,29.87,NW,323,1.0,9.0,43,0.00,,,0.00,0,Wunderground v.1.15,2013-11-03 06:06:00,
2013-11-02 23:12:00,58.6,36.7,29.87,WNW,298,0.0,1.0,44,0.00,,,0.00,0,Wunderground v.1.15,2013-11-03 06:12:00,
2013-11-02 23:18:00,58.5,36.1,29.87,NW,316,1.0,4.0,43,0.00,,,0.00,0,Wunderground v.1.15,2013-11-03 06:18:00,
2013-11-02 23:24:00,58.5,36.1,29.87,NW,313,2.0,10.0,43,0.00,,,0.00,0,Wunderground v.1.15,2013-11-03 06:24:00,
2013-11-02 23:30:00,58.5,36.1,29.87,NNW,333,4.0,4.0,43,0.00,,,0.00,0,Wunderground v.1.15,2013-11-03 06:30:00,
2013-11-02 23:36:00,58.5,35.5,29.88,NW,305,2.0,8.0,42,0.00,,,0.00,0,Wunderground v.1.15,2013-11-03 06:36:00,
2013-11-02 23:42:00,58.5,35.5,29.88,NNE,27,2.0,2.0,42,0.00,,,0.00,0,Wunderground v.1.15,2013-11-03 06:42:00,
2013-11-02 23:48:00,58.5,34.9,29.88,NW,310,2.0,4.0,41,0.00,,,0.00,0,Wunderground v.1.15,2013-11-03 06:48:00,
2013-11-02 23:54:00,58.5,34.9,29.88,North,360,4.0,7.0,41,0.00,,,0.00,0,Wunderground v.1.15,2013-11-03 06:54:00,